Peachtree City, GA

5:26 AM EDT on April 27, 2017 (GMT -0400)
Peachtree City-Falcon

Weather History for KFFC - March, 2014

Change the Weather History Date:

Thursday, March 27, 2014

  Actual Average Record
Temperature  
Mean Temperature 49 °F 56 °F  
Max Temperature 68 °F 69 °F 80 °F (2012)
Min Temperature 30 °F 42 °F 26 °F (2006)
Degree Days  
Heating Degree Days 16 9  
Month to date heating degree days 383 334  
Since 1 July heating degree days 2913 2716  
Cooling Degree Days 0 0  
Month to date cooling degree days 0 0  
Year to date cooling degree days 0 0  
Moisture  
Dew Point 29 °F    
Average Humidity 52    
Maximum Humidity 85    
Minimum Humidity 19    
Precipitation  
Precipitation 0.00 in 0.15 in 2.91 in (2005)
Month to date precipitation 3.52 4.52  
Year to date precipitation 9.86 13.62  
Sea Level Pressure  
Sea Level Pressure 30.26 in    
Wind  
Wind Speed 7 mph (SE)    
Max Wind Speed 22 mph    
Max Gust Speed 28 mph    
Visibility 10 miles    
Events      
T = Trace of Precipitation, MM = Missing Value Source: NWS Daily Summary

Daily Weather History Graph

Daily Weather History Graph

Search for Another Location

Airport or City:

Trip Planner

Search our weather history database for the weather conditions in past years. The results will help you decide how hot, cold, wet, or windy it might be!

Date:

Astronomy

Mar. 27, 2014 Rise Set
Actual Time 7:32 AM EDT 7:55 PM EDT
Civil Twilight 7:07 AM EDT 8:19 PM EDT
Nautical Twilight 6:38 AM EDT 8:49 PM EDT
Astronomical Twilight 6:09 AM EDT 9:18 PM EDT
Moon 5:13 AM EDT 4:50 PM EDT
Length of Visible Light 13h 12m
Length of Day
12h 22m
Waning Crescent, 13% of the Moon is Illuminated
Mar 27
Waning Crescent
Mar 30
New
Apr 7
First Quarter
Apr 15
Full
Apr 22
Last Quarter

Hourly Weather History & Observations

Time (EDT) Temp. Windchill Dew Point Humidity Pressure Visibility Wind Dir Wind Speed Gust Speed Precip Events Conditions
12:53 AM 30.9 °F - 25.0 °F 79% 30.30 in 10.0 mi Calm Calm - N/A   Clear
1:53 AM 30.0 °F - 25.0 °F 82% 30.30 in 10.0 mi Calm Calm - N/A   Clear
2:53 AM 30.9 °F - 26.1 °F 82% 30.29 in 10.0 mi Calm Calm - N/A   Clear
3:53 AM 30.9 °F - 27.0 °F 85% 30.27 in 10.0 mi Calm Calm - N/A   Clear
4:53 AM 32.0 °F - 28.0 °F 85% 30.27 in 10.0 mi Calm Calm - N/A   Clear
5:53 AM 33.1 °F - 28.9 °F 85% 30.30 in 10.0 mi Calm Calm - N/A   Clear
6:53 AM 33.1 °F - 28.9 °F 85% 30.31 in 10.0 mi Calm Calm - N/A   Clear
7:53 AM 33.1 °F 30.0 °F 28.9 °F 85% 30.32 in 10.0 mi SE 3.5 mph - N/A   Clear
8:53 AM 39.0 °F - 30.0 °F 70% 30.35 in 10.0 mi Calm Calm - N/A   Clear
9:53 AM 46.0 °F 42.5 °F 24.1 °F 42% 30.36 in 10.0 mi ESE 6.9 mph - N/A   Clear
10:53 AM 53.1 °F - 21.9 °F 30% 30.35 in 10.0 mi SE 12.7 mph 17.3 mph N/A   Clear
11:53 AM 57.0 °F - 21.9 °F 26% 30.34 in 10.0 mi SE 12.7 mph - N/A   Clear
12:53 PM 59.0 °F - 23.0 °F 25% 30.31 in 10.0 mi SE 15.0 mph 24.2 mph N/A   Clear
1:53 PM 62.1 °F - 23.0 °F 22% 30.29 in 10.0 mi ESE 16.1 mph 21.9 mph N/A   Clear
2:53 PM 64.0 °F - 21.9 °F 20% 30.25 in 10.0 mi South 10.4 mph 19.6 mph N/A   Clear
3:53 PM 64.9 °F - 25.0 °F 22% 30.23 in 10.0 mi SE 15.0 mph 23.0 mph N/A   Clear
4:53 PM 66.9 °F - 27.0 °F 22% 30.20 in 10.0 mi SE 9.2 mph 27.6 mph N/A   Clear
5:53 PM 66.9 °F - 28.9 °F 24% 30.18 in 10.0 mi SE 12.7 mph 19.6 mph N/A   Clear
6:53 PM 66.0 °F - 30.0 °F 26% 30.16 in 10.0 mi SE 11.5 mph - N/A   Clear
7:53 PM 63.0 °F - 34.0 °F 34% 30.19 in 10.0 mi SSE 5.8 mph - N/A   Clear
8:53 PM 61.0 °F - 39.9 °F 46% 30.18 in 10.0 mi SE 8.1 mph - N/A   Clear
9:53 PM 60.1 °F - 43.0 °F 53% 30.19 in 10.0 mi SSE 8.1 mph - N/A   Clear
10:53 PM 57.9 °F - 45.0 °F 62% 30.17 in 10.0 mi SE 8.1 mph - N/A   Scattered Clouds
11:53 PM 59.0 °F - 46.0 °F 62% 30.18 in 10.0 mi SSE 8.1 mph - N/A   Clear